Location: Kaarina
(60.4167°N, 22.4167°E)
Time: 10:21:45
(UTC+03:00)

MOS 1 Rocket - Pass Details

Date: 24 August 2019
Orbit: 616 x 829 km, 97.4° (Epoch: 19 September)

Event Time Altitude Azimuth Distance (km) Brightness Sun altitude
Rises 23:19:23 0° 16° (NNE) 3,324 7.4 -13.8°
Reaches altitude 10° 23:21:44 10° 19° (NNE) 2,410 6.6 -14.0°
Maximum altitude 23:27:05 64° 101° (ESE) 918 3.7 -14.4°
Enters shadow 23:31:19 17° 180° (S) 1,994 5.1 -14.6°
